Location: Boleita
(10.4833°N, 66.8167°W)
Time: 03:45:35
(UTC+00:00)

SJ-11-01 - Pass Details

Date: 08 November 2025
Orbit: 675 x 689 km, 98.0° (Epoch: 09 December)

Event Time Altitude Azimuth Distance (km) Brightness Sun altitude
Rises 09:04:10 0° 7° (N) 3,045 7.5 -18.9°
Reaches altitude 10° 09:06:25 10° 5° (N) 2,131 6.7 -18.3°
Maximum altitude 09:11:03 68° 282° (WNW) 739 4.2 -17.2°
Drops below altitude 10° 09:15:41 10° 200° (SSW) 2,133 6.8 -16.1°
Sets 09:17:56 0° 197° (SSW) 3,049 7.6 -15.6°
